When you browse on this site, cookies collect data to enhance your experience and personalize the content and advertising you see.
Visit our Privacy Policy to learn more. By continuing to use the site, you agree to this use of cookies and data.
  • In Latvia
  • List of Countries
  • For 7 days
  • Water Temperature
  • Weather Map
  • Weather Widgets
  • user-avatar
    Login

    Hourly Weather El Paso

    Today, 22 October, Tuesday

    Time Temperature Precipitation Wind Pressure Humidity
    00:00 +18°C° 0 mm 2 mps 665 mmHg 22%
    01:00 +17°C° 0 mm 2 mps 665 mmHg 22%
    02:00 +17°C° 0 mm 3 mps 665 mmHg 21%
    03:00 +16°C° 0 mm 3 mps 665 mmHg 21%
    04:00 +15°C° 0 mm 2 mps 665 mmHg 21%
    05:00 +15°C° 0 mm 2 mps 665 mmHg 21%
    06:00 +16°C° 0 mm 2 mps 665 mmHg 20%
    07:00 +16°C° 0 mm 2 mps 666 mmHg 19%
    08:00 +17°C° 0 mm 2 mps 666 mmHg 18%
    09:00 +18°C° 0 mm 2 mps 667 mmHg 17%
    10:00 +21°C° 0 mm 1 mps 667 mmHg 15%
    11:00 +22°C° 0 mm 1 mps 667 mmHg 14%
    12:00 +23°C° 0 mm 1 mps 666 mmHg 13%
    13:00 +23°C° 0 mm 1 mps 665 mmHg 12%
    14:00 +22°C° 0 mm 0 mps 665 mmHg 12%
    15:00 +22°C° 0 mm 0 mps 665 mmHg 14%
    16:00 +24°C° 0 mm 1 mps 664 mmHg 16%
    17:00 +24°C° 0 mm 1 mps 664 mmHg 17%
    18:00 +23°C° 0 mm 1 mps 664 mmHg 18%
    19:00 +22°C° 0 mm 1 mps 664 mmHg 19%
    20:00 +21°C° 0 mm 1 mps 664 mmHg 19%
    21:00 +21°C° 0 mm 1 mps 663 mmHg 20%
    22:00 +20°C° 0 mm 1 mps 663 mmHg 21%
    23:00 +19°C° 0 mm 1 mps 663 mmHg 21%

    Tomorrow, 23 October, Wednesday

    Time Temperature Precipitation Wind Pressure Humidity
    00:00 +19°C° 0 mm 1 mps 663 mmHg 22%
    01:00 +19°C° 0 mm 1 mps 662 mmHg 23%
    02:00 +18°C° 0 mm 1 mps 662 mmHg 23%
    03:00 +16°C° 0 mm 0 mps 661 mmHg 24%
    04:00 +15°C° 0 mm 0 mps 661 mmHg 25%
    05:00 +15°C° 0 mm 0 mps 661 mmHg 26%
    06:00 +16°C° 0 mm 0 mps 661 mmHg 25%
    07:00 +18°C° 0 mm 0 mps 662 mmHg 24%
    08:00 +19°C° 0 mm 0 mps 663 mmHg 22%
    09:00 +20°C° 0 mm 0 mps 663 mmHg 20%
    10:00 +21°C° 0 mm 0 mps 663 mmHg 18%
    11:00 +22°C° 0 mm 0 mps 663 mmHg 16%
    12:00 +25°C° 0 mm 1 mps 662 mmHg 15%
    13:00 +26°C° 0 mm 1 mps 662 mmHg 14%
    14:00 +27°C° 0 mm 1 mps 661 mmHg 14%
    15:00 +26°C° 0 mm 2 mps 661 mmHg 15%
    16:00 +26°C° 0 mm 2 mps 661 mmHg 17%
    17:00 +26°C° 0 mm 2 mps 661 mmHg 18%
    18:00 +25°C° 0 mm 2 mps 661 mmHg 19%
    19:00 +24°C° 0 mm 1 mps 661 mmHg 21%
    20:00 +23°C° 0 mm 1 mps 661 mmHg 22%
    21:00 +22°C° 0 mm 1 mps 661 mmHg 22%
    22:00 +22°C° 0 mm 1 mps 661 mmHg 22%
    23:00 +20°C° 0 mm 2 mps 661 mmHg 22%

    Day after tomorrow, 24 October, Thursday

    Time Temperature Precipitation Wind Pressure Humidity
    00:00 +21°C° 0 mm 1 mps 661 mmHg 24%
    01:00 +20°C° 0 mm 1 mps 661 mmHg 25%
    02:00 +20°C° 0 mm 1 mps 661 mmHg 27%
    03:00 +18°C° 0 mm 2 mps 661 mmHg 29%
    04:00 +17°C° 0 mm 3 mps 662 mmHg 30%
    05:00 +17°C° 0 mm 4 mps 662 mmHg 32%
    06:00 +15°C° 0 mm 4 mps 662 mmHg 34%
    07:00 +15°C° 0 mm 5 mps 663 mmHg 36%
    08:00 +14°C° 0 mm 6 mps 664 mmHg 39%
    09:00 +16°C° 0 mm 6 mps 664 mmHg 36%
    10:00 +17°C° 0 mm 6 mps 665 mmHg 34%
    11:00 +19°C° 0 mm 6 mps 665 mmHg 31%
    12:00 +20°C° 0 mm 6 mps 665 mmHg 30%
    13:00 +20°C° 0 mm 6 mps 665 mmHg 28%
    14:00 +21°C° 0 mm 6 mps 665 mmHg 27%
    15:00 +20°C° 0 mm 6 mps 665 mmHg 28%
    16:00 +20°C° 0 mm 7 mps 665 mmHg 30%
    17:00 +18°C° 0 mm 7 mps 664 mmHg 31%
    18:00 +16°C° 0 mm 7 mps 665 mmHg 32%
    19:00 +15°C° 0 mm 8 mps 665 mmHg 34%
    20:00 +13°C° 0 mm 8 mps 666 mmHg 35%
    21:00 +12°C° 0 mm 8 mps 666 mmHg 38%
    22:00 +11°C° 0 mm 8 mps 666 mmHg 40%
    23:00 +10°C° 0 mm 8 mps 667 mmHg 42%

    25 October, Friday

    Time Temperature Precipitation Wind Pressure Humidity
    00:00 +9°C° 0 mm 7 mps 667 mmHg 44%
    01:00 +9°C° 0 mm 7 mps 667 mmHg 45%
    02:00 +8°C° 0 mm 6 mps 667 mmHg 46%
    03:00 +8°C° 0 mm 5 mps 667 mmHg 47%
    04:00 +7°C° 0 mm 5 mps 667 mmHg 49%
    05:00 +7°C° 0 mm 4 mps 668 mmHg 50%
    06:00 +7°C° 0 mm 4 mps 668 mmHg 49%
    07:00 +7°C° 0 mm 4 mps 668 mmHg 48%
    08:00 +8°C° 0 mm 4 mps 669 mmHg 48%
    09:00 +10°C° 0 mm 4 mps 669 mmHg 43%
    10:00 +12°C° 0 mm 4 mps 669 mmHg 38%
    11:00 +14°C° 0 mm 4 mps 670 mmHg 34%
    12:00 +16°C° 0 mm 3 mps 669 mmHg 31%
    13:00 +17°C° 0 mm 3 mps 669 mmHg 29%
    14:00 +18°C° 0 mm 3 mps 668 mmHg 27%
    15:00 +18°C° 0 mm 3 mps 668 mmHg 27%
    16:00 +18°C° 0 mm 3 mps 668 mmHg 27%
    17:00 +18°C° 0 mm 3 mps 667 mmHg 27%
    18:00 +17°C° 0 mm 3 mps 667 mmHg 29%
    19:00 +16°C° 0 mm 2 mps 667 mmHg 31%
    20:00 +15°C° 0 mm 2 mps 667 mmHg 33%
    21:00 +15°C° 0 mm 2 mps 667 mmHg 34%
    22:00 +14°C° 0 mm 2 mps 667 mmHg 35%
    23:00 +14°C° 0 mm 2 mps 667 mmHg 36%

    26 October, Saturday

    Time Temperature Precipitation Wind Pressure Humidity
    00:00 +14°C° 0 mm 2 mps 666 mmHg 37%
    01:00 +13°C° 0 mm 2 mps 666 mmHg 37%
    02:00 +13°C° 0 mm 2 mps 665 mmHg 38%
    03:00 +12°C° 0 mm 2 mps 665 mmHg 39%
    04:00 +12°C° 0 mm 2 mps 665 mmHg 40%
    05:00 +12°C° 0 mm 2 mps 664 mmHg 41%
    06:00 +12°C° 0 mm 2 mps 665 mmHg 39%
    07:00 +13°C° 0 mm 2 mps 665 mmHg 37%
    08:00 +13°C° 0 mm 2 mps 665 mmHg 35%
    09:00 +15°C° 0 mm 2 mps 665 mmHg 32%
    10:00 +16°C° 0 mm 2 mps 665 mmHg 28%
    11:00 +18°C° 0 mm 2 mps 665 mmHg 25%
    12:00 +20°C° 0 mm 1 mps 664 mmHg 23%
    13:00 +21°C° 0 mm 1 mps 663 mmHg 21%
    14:00 +22°C° 0 mm 1 mps 663 mmHg 20%
    15:00 +22°C° 0 mm 1 mps 662 mmHg 21%
    16:00 +22°C° 0 mm 1 mps 662 mmHg 23%
    17:00 +22°C° 0 mm 1 mps 662 mmHg 24%
    18:00 +21°C° 0 mm 1 mps 661 mmHg 26%
    19:00 +20°C° 0 mm 1 mps 661 mmHg 28%
    20:00 +19°C° 0 mm 1 mps 661 mmHg 31%
    21:00 +18°C° 0 mm 1 mps 661 mmHg 32%
    22:00 +18°C° 0 mm 1 mps 661 mmHg 33%
    23:00 +16°C° 0 mm 2 mps 661 mmHg 35%

    27 October, Sunday

    Time Temperature Precipitation Wind Pressure Humidity
    00:00 +16°C° 0 mm 2 mps 660 mmHg 37%
    01:00 +16°C° 0 mm 2 mps 660 mmHg 38%
    02:00 +15°C° 0 mm 1 mps 659 mmHg 40%
    03:00 +15°C° 0 mm 2 mps 659 mmHg 42%
    04:00 +15°C° 0 mm 2 mps 659 mmHg 44%
    05:00 +15°C° 0 mm 2 mps 659 mmHg 45%
    06:00 +16°C° 0 mm 2 mps 660 mmHg 43%
    07:00 +16°C° 0 mm 2 mps 661 mmHg 41%
    08:00 +17°C° 0 mm 2 mps 661 mmHg 38%
    09:00 +19°C° 0 mm 3 mps 662 mmHg 33%
    10:00 +21°C° 0 mm 4 mps 662 mmHg 27%
    11:00 +23°C° 0 mm 4 mps 662 mmHg 22%
    12:00 +26°C° 0 mm 5 mps 662 mmHg 20%
    13:00 +27°C° 0 mm 5 mps 662 mmHg 18%
    14:00 +28°C° 0 mm 5 mps 662 mmHg 16%
    15:00 +27°C° 0 mm 4 mps 662 mmHg 17%
    16:00 +26°C° 0 mm 4 mps 662 mmHg 19%
    17:00 +26°C° 0 mm 3 mps 662 mmHg 20%
    18:00 +25°C° 0 mm 2 mps 662 mmHg 22%
    19:00 +23°C° 0 mm 2 mps 662 mmHg 24%
    20:00 +22°C° 0 mm 1 mps 662 mmHg 26%
    21:00 +20°C° 0 mm 2 mps 662 mmHg 28%
    22:00 +19°C° 0 mm 2 mps 662 mmHg 30%
    23:00 +19°C° 0 mm 3 mps 662 mmHg 32%

    28 October, Monday

    Time Temperature Precipitation Wind Pressure Humidity
    00:00 +18°C° 0 mm 4 mps 662 mmHg 36%
    01:00 +17°C° 0 mm 4 mps 662 mmHg 39%
    02:00 +15°C° 0 mm 5 mps 662 mmHg 42%
    03:00 +14°C° 0 mm 5 mps 662 mmHg 43%
    04:00 +13°C° 0 mm 5 mps 662 mmHg 43%
    05:00 +13°C° 0 mm 5 mps 662 mmHg 44%
    06:00 +13°C° 0 mm 5 mps 663 mmHg 43%
    07:00 +13°C° 0 mm 5 mps 663 mmHg 42%
    08:00 +13°C° 0 mm 5 mps 664 mmHg 41%
    09:00 +15°C° 0 mm 4 mps 664 mmHg 38%
    10:00 +18°C° 0 mm 4 mps 664 mmHg 34%
    11:00 +19°C° 0 mm 4 mps 665 mmHg 31%
    12:00 +20°C° 0 mm 3 mps 664 mmHg 30%
    13:00 +21°C° 0 mm 3 mps 664 mmHg 29%
    14:00 +24°C° 0 mm 3 mps 663 mmHg 28%
    15:00 +23°C° 0 mm 2 mps 663 mmHg 29%
    16:00 +23°C° 0 mm 2 mps 663 mmHg 31%
    17:00 +23°C° 0 mm 2 mps 663 mmHg 32%
    18:00 +21°C° 0 mm 2 mps 663 mmHg 33%
    19:00 +21°C° 0 mm 2 mps 663 mmHg 35%
    20:00 +20°C° 0 mm 2 mps 663 mmHg 36%
    21:00 +19°C° 0 mm 2 mps 663 mmHg 37%
    22:00 +19°C° 0 mm 2 mps 663 mmHg 38%
    23:00 +18°C° 0 mm 2 mps 663 mmHg 40%
    Show more